Weather History for Carlsbad, CA

Change the Weather History Date:

Wednesday, January 23, 2013

  Actual Average Record
Temperature  
Mean Temperature 66 °F -  
Max Temperature 75 °F 60 °F 79 °F (2011)
Min Temperature 57 °F 46 °F 42 °F (2014)
Cooling Degree Days 1    
Growing Degree Days 16 (Base 50)    
Moisture  
Dew Point 34 °F    
Average Humidity 31    
Maximum Humidity 62    
Minimum Humidity 20    
Precipitation  
Precipitation 0.00 in - - ()
Sea Level Pressure  
Sea Level Pressure 30.05 in    
Wind  
Wind Speed 3 mph (SSE)    
Max Wind Speed 9 mph    
Max Gust Speed -    
Visibility 10 miles    
Events      
Averages and records for this station are not official NWS values.
T = Trace of Precipitation, MM = Missing Value Source: NWS Daily Summary

Daily Weather History Graph

Daily Weather History Graph

Search for Another Location

Airport:

Trip Planner

Search our weather history database for the weather conditions in past years. The results will help you decide how hot, cold, wet, or windy it might be!

Date:

Astronomy

Jan. 23, 2013 Rise Set
Actual Time 6:49 AM PST 5:12 PM PST
Civil Twilight 6:23 AM PST 5:39 PM PST
Nautical Twilight 5:53 AM PST 6:09 PM PST
Astronomical Twilight 5:23 AM PST 6:38 PM PST
Moon 2:29 PM PST (1/23) 4:02 AM PST (1/23)
Length of Visible Light 11h 16m
Length of Day
10h 23m
Waxing Gibbous, 90% of the Moon is Illuminated
Jan 23
Waxing Gibbous
Jan 26
Full
Feb 3
Last Quarter
Feb 9
New
Feb 17
First Quarter

Hourly Weather History & Observations

Time (PST) Temp. Dew Point Humidity Pressure Visibility Wind Dir Wind Speed Gust Speed Precip Events Conditions
12:53 AM 62.1 °F 21.9 °F 21% 30.02 in 10.0 mi ENE 4.6 mph - N/A   Clear
1:53 AM 62.1 °F 23.0 °F 22% 30.01 in 10.0 mi Calm Calm - N/A   Clear
2:53 AM 60.1 °F 25.0 °F 26% 30.01 in 10.0 mi Calm Calm - N/A   Clear
3:53 AM 57.9 °F 27.0 °F 31% 30.01 in 10.0 mi Calm Calm - N/A   Clear
4:53 AM 63.0 °F 26.1 °F 25% 30.00 in 10.0 mi NE 3.5 mph - N/A   Clear
5:53 AM 63.0 °F 30.0 °F 29% 30.01 in 10.0 mi ENE 4.6 mph - N/A   Clear
6:53 AM 60.1 °F 33.1 °F 36% 30.02 in 10.0 mi Calm Calm - N/A   Clear
7:53 AM 62.1 °F 36.0 °F 38% 30.03 in 10.0 mi ENE 3.5 mph - N/A   Clear
8:53 AM 68.0 °F 36.0 °F 31% 30.04 in 9.0 mi Calm Calm - N/A   Clear
9:53 AM 75.9 °F 36.0 °F 23% 30.05 in 10.0 mi Calm Calm - N/A   Clear
10:53 AM 75.9 °F 41.0 °F 29% 30.04 in 10.0 mi Calm Calm - N/A   Clear
11:53 AM 75.0 °F 39.0 °F 27% 30.04 in 10.0 mi WSW 6.9 mph - N/A   Clear
12:53 PM 72.0 °F 32.0 °F 23% 30.03 in 10.0 mi South 6.9 mph - N/A   Clear
1:53 PM 73.0 °F 34.0 °F 24% 30.02 in 10.0 mi Calm Calm - N/A   Overcast
2:53 PM 73.9 °F 30.0 °F 20% 30.03 in 10.0 mi South 5.8 mph - N/A   Clear
3:53 PM 72.0 °F 28.0 °F 20% 30.05 in 10.0 mi South 5.8 mph - N/A   Clear
4:53 PM 68.0 °F 35.1 °F 30% 30.06 in 10.0 mi SW 9.2 mph - N/A   Clear
5:53 PM 66.0 °F 37.9 °F 36% 30.07 in 10.0 mi Calm Calm - N/A   Mostly Cloudy
6:53 PM 66.9 °F 35.1 °F 31% 30.09 in 10.0 mi South 3.5 mph - N/A   Overcast
7:53 PM 64.9 °F 36.0 °F 34% 30.08 in 10.0 mi Calm Calm - N/A   Mostly Cloudy
8:53 PM 64.0 °F 37.9 °F 38% 30.09 in 10.0 mi Calm Calm - N/A   Overcast
9:53 PM 63.0 °F 39.0 °F 41% 30.10 in 10.0 mi Calm Calm - N/A   Overcast
10:53 PM 62.1 °F 41.0 °F 46% 30.12 in 10.0 mi SW 8.1 mph - 0.00 in   Overcast
11:53 PM 61.0 °F 48.0 °F 62% 30.12 in 10.0 mi Calm Calm - N/A   Overcast